Miscellaneous Local Product
Issued by NWS North Platte, NE

Home | Current Version | Previous Version | Text Only | Print | Product List | Glossary On
Versions: 1 2 3 4 5 6 7 8 9 10 11 12 13 14 15 16 17 18 19 20 21 22 23 24 25 26 27 28 29 30 31 32 33 34 35 36 37 38 39 40 41 42 43 44 45 46 47 48 49 50
000
AXUS43 KLBF 231910
MISLBF


WESTERN AND NORTH CENTRAL NEBRASKA HOURLY WEATHER ROUNDUP
NATIONAL WEATHER SERVICE NORTH PLATTE NE
200 PM CDT THU OCT 23 2014

***STATIONS NOT REPORTING VARIABLES SUCH AS SKY/WEATHER OR
PRESSURE ARE PROVIDED BY THE NEBRASKA DEPARTMENT OF
ROADS...RAWS...AND APRS NETWORKS...AND ARE NOT UNDER
NATIONAL WEATHER SERVICE QUALITY CONTROL***

...OBSERVATIONS IN AND NEAR THE EASTERN PANHANDLE OF NEBRASKA...

CITY           SKY/WX    TMP DP  RH WIND       PRES   REMARKS
PINE RIDGE     PTSUNNY   68  34  28 SW13      29.97F
CHADRON        CLOUDY    68  36  30 SW12      29.97F
ALLIANCE       CLOUDY    68  31  25 W22G30    30.03F
SIDNEY         PTSUNNY   68  38  33 SW15G24   30.09F
WHITECLAY        N/A     69  31  24 SW7         N/A
RUSHVILLE        N/A     70  25  18 W24         N/A
CRESCENT LAKE    N/A     72  32  22 W13G23      N/A
LISCO            N/A     74  32  22 S6          N/A
BIG SPRINGS      N/A     68  47  46 NW3         N/A
LEWELLEN         N/A     78  33  19 SW10        N/A
$$

...OBSERVATIONS IN NORTH CENTRAL NEBRASKA...

CITY           SKY/WX    TMP DP  RH WIND       PRES   REMARKS
VALENTINE      MOSUNNY   73  36  25 SW13      29.96F
THEDFORD       MOSUNNY   73  45  35 SW13      30.01F
AINSWORTH      SUNNY     73  40  31 SW13      29.98F
O`NEILL        SUNNY     71  42  35 SW13      30.00F
ORD            SUNNY     69  50  50 S10       30.02F
BROKEN BOW     SUNNY     70  55  59 S9        30.03F
BROWNLEE         N/A     77  32  19 W16         N/A
SPRINGVIEW       N/A     74  43  32 SW10G20     N/A
BREWSTER         N/A     76  47  35 SW17        N/A
ROSE             N/A     76  44  31 S10         N/A
NEWPORT          N/A     72  46  38 S8          N/A
SARGENT          N/A     68  52  56 SW12        N/A
COMSTOCK         N/A     75  54  46 SW10        N/A
CHAMBERS         N/A     70  45  40 S7          N/A
EWING            N/A     71  48  43 SW10        N/A
$$

...OBSERVATIONS IN SOUTHWEST NEBRASKA AND FAR NORTHEAST COLORADO...

CITY           SKY/WX    TMP DP  RH WIND       PRES   REMARKS
WRAY           FAIR      77  38  24 S6        30.08F
HOLYOKE        FAIR      77  37  24 W8        30.07F
IMPERIAL       MOSUNNY   74  41  30 SW14G22   30.06F
OGALLALA       MOSUNNY   75  43  32 SW9       30.04F
NORTH PLATTE   PTSUNNY   73  43  33 SW14      30.03F
MCCOOK         PTSUNNY   71  52  50 VRB6      30.07F
LEXINGTON      MOSUNNY   68  57  66 SW6       30.06F
PAXTON           N/A     69  51  51 SW12        N/A
SUTHERLAND       N/A     77  45  31 SW13        N/A
BRADY            N/A     68  52  55 CALM        N/A
GOTHENBURG       N/A     68  50  51 S6          N/A
CALLAWAY         N/A     67  56  69 S10         N/A
$$

...SOME WEATHER OBSERVATIONS FROM AROUND THE REGION...

CITY           SKY/WX    TMP DP  RH WIND       PRES   REMARKS
DENVER         PTSUNNY   74  28  18 W10G17    30.15S
LARAMIE        PTSUNNY   61  27  27 W18       30.20F
CHEYENNE       CLOUDY    65  28  24 W28       30.15F
SCOTTSBLUFF    CLOUDY    66  39  37 W6        30.05F
RAPID CITY     PTSUNNY   64  35  34 SE6       29.91F
PIERRE         SUNNY     65  37  35 VRB5      29.92F
WINNER         FAIR      73  26  17 VRB6      29.94F
SIOUX FALLS    MOSUNNY   66  45  46 SW9       30.00F
OMAHA          SUNNY     69  52  54 NE3       30.04F
GRAND ISLAND   SUNNY     63  55  75 S8        30.07F
KANSAS CITY    DRIZZLE   62  61  96 SW9       30.07F FOG
HAYS           MOSUNNY   70  57  64 S9        30.08F
LIBERAL        SUNNY     66  59  77 NE5       30.11F
GOODLAND       SUNNY     72  46  39 S12       30.10F
$$



USA.gov is the U.S. government's official web portal to all federal, state and local government web resources and services.